Hourly Weather Bolshie Dvorcy

Today, 5 August, Thursday

Time Temperature Precipitation Wind Pressure Humidity
00:00 +16°C° 0 mm 1 mps 748 mmHg 93%
01:00 +16°C° 0 mm 1 mps 748 mmHg 94%
02:00 +16°C° 0 mm 1 mps 747 mmHg 94%
03:00 +15°C° 0 mm 1 mps 747 mmHg 95%
04:00 +15°C° 0 mm 1 mps 747 mmHg 95%
05:00 +15°C° 0 mm 1 mps 747 mmHg 95%
06:00 +16°C° 0 mm 1 mps 747 mmHg 91%
07:00 +18°C° 0 mm 1 mps 747 mmHg 87%
08:00 +19°C° 0 mm 1 mps 747 mmHg 82%
09:00 +21°C° 0 mm 1 mps 747 mmHg 75%
10:00 +22°C° 0 mm 1 mps 747 mmHg 68%
11:00 +23°C° 0 mm 1 mps 747 mmHg 61%
12:00 +23°C° 0 mm 1 mps 747 mmHg 64%
13:00 +23°C° 0 mm 1 mps 746 mmHg 67%
14:00 +22°C° 0 mm 1 mps 746 mmHg 69%
15:00 +21°C° 0.1 mm 2 mps 746 mmHg 72%
16:00 +21°C° 0.1 mm 3 mps 745 mmHg 75%
17:00 +20°C° 0.1 mm 3 mps 745 mmHg 77%
18:00 +20°C° 0 mm 4 mps 744 mmHg 80%
19:00 +19°C° 0 mm 4 mps 744 mmHg 82%
20:00 +19°C° 0 mm 4 mps 743 mmHg 84%
21:00 +17°C° 0.3 mm 5 mps 743 mmHg 86%
22:00 +17°C° 0.3 mm 5 mps 742 mmHg 88%
23:00 +17°C° 0.3 mm 5 mps 742 mmHg 90%

Tomorrow, 6 August, Friday

Time Temperature Precipitation Wind Pressure Humidity
00:00 +17°C° 1.3 mm 6 mps 741 mmHg 92%
01:00 +17°C° 1.3 mm 6 mps 740 mmHg 94%
02:00 +17°C° 1.3 mm 7 mps 739 mmHg 96%
03:00 +17°C° 0.1 mm 6 mps 739 mmHg 96%
04:00 +17°C° 0.1 mm 5 mps 738 mmHg 96%
05:00 +18°C° 0.1 mm 4 mps 738 mmHg 96%
06:00 +17°C° 0 mm 5 mps 738 mmHg 93%
07:00 +19°C° 0 mm 5 mps 737 mmHg 90%
08:00 +20°C° 0 mm 6 mps 737 mmHg 87%
09:00 +19°C° 0 mm 6 mps 737 mmHg 86%
10:00 +19°C° 0 mm 6 mps 737 mmHg 85%
11:00 +17°C° 0 mm 6 mps 738 mmHg 84%
12:00 +17°C° 0 mm 7 mps 738 mmHg 83%
13:00 +17°C° 0 mm 7 mps 738 mmHg 81%
14:00 +18°C° 0 mm 7 mps 738 mmHg 80%
15:00 +17°C° 0 mm 7 mps 739 mmHg 79%
16:00 +17°C° 0 mm 7 mps 739 mmHg 77%
17:00 +17°C° 0 mm 7 mps 740 mmHg 76%
18:00 +16°C° 0 mm 6 mps 740 mmHg 76%
19:00 +16°C° 0 mm 6 mps 740 mmHg 76%
20:00 +15°C° 0 mm 5 mps 741 mmHg 76%
21:00 +15°C° 0 mm 5 mps 741 mmHg 76%
22:00 +15°C° 0 mm 5 mps 741 mmHg 76%
23:00 +14°C° 0 mm 5 mps 742 mmHg 76%

Day after tomorrow, 7 August, Saturday

Time Temperature Precipitation Wind Pressure Humidity
00:00 +14°C° 0 mm 4 mps 742 mmHg 79%
01:00 +13°C° 0 mm 4 mps 742 mmHg 82%
02:00 +13°C° 0 mm 4 mps 742 mmHg 85%
03:00 +12°C° 0 mm 4 mps 743 mmHg 88%
04:00 +12°C° 0 mm 4 mps 743 mmHg 90%
05:00 +11°C° 0 mm 4 mps 743 mmHg 93%
06:00 +12°C° 0 mm 4 mps 743 mmHg 86%
07:00 +13°C° 0 mm 5 mps 744 mmHg 79%
08:00 +15°C° 0 mm 5 mps 744 mmHg 72%
09:00 +17°C° 0 mm 5 mps 744 mmHg 65%
10:00 +19°C° 0 mm 5 mps 745 mmHg 59%
11:00 +21°C° 0 mm 5 mps 745 mmHg 52%
12:00 +22°C° 0 mm 5 mps 745 mmHg 50%
13:00 +25°C° 0 mm 5 mps 745 mmHg 48%
14:00 +26°C° 0 mm 5 mps 745 mmHg 46%
15:00 +25°C° 0 mm 4 mps 745 mmHg 51%
16:00 +25°C° 0 mm 4 mps 745 mmHg 56%
17:00 +24°C° 0 mm 3 mps 745 mmHg 61%
18:00 +22°C° 0 mm 3 mps 746 mmHg 66%
19:00 +21°C° 0 mm 2 mps 746 mmHg 70%
20:00 +20°C° 0 mm 2 mps 746 mmHg 75%
21:00 +20°C° 0 mm 2 mps 746 mmHg 76%
22:00 +19°C° 0 mm 2 mps 747 mmHg 77%
23:00 +19°C° 0 mm 2 mps 747 mmHg 79%

8 August, Sunday

Time Temperature Precipitation Wind Pressure Humidity
00:00 +18°C° 0 mm 2 mps 747 mmHg 81%
01:00 +17°C° 0 mm 2 mps 747 mmHg 82%
02:00 +17°C° 0 mm 2 mps 747 mmHg 84%
03:00 +17°C° 0 mm 2 mps 747 mmHg 85%
04:00 +16°C° 0 mm 2 mps 747 mmHg 85%
05:00 +16°C° 0 mm 2 mps 748 mmHg 86%
06:00 +18°C° 0 mm 3 mps 748 mmHg 79%
07:00 +20°C° 0 mm 3 mps 748 mmHg 72%
08:00 +22°C° 0 mm 4 mps 748 mmHg 65%
09:00 +25°C° 0 mm 5 mps 748 mmHg 59%
10:00 +27°C° 0 mm 5 mps 748 mmHg 53%
11:00 +29°C° 0 mm 6 mps 748 mmHg 46%
12:00 +29°C° 0 mm 6 mps 747 mmHg 44%
13:00 +30°C° 0 mm 6 mps 747 mmHg 41%
14:00 +32°C° 0 mm 6 mps 747 mmHg 38%
15:00 +30°C° 0 mm 6 mps 747 mmHg 41%
16:00 +30°C° 0 mm 5 mps 747 mmHg 44%
17:00 +29°C° 0 mm 5 mps 747 mmHg 47%
18:00 +27°C° 0 mm 4 mps 747 mmHg 54%
19:00 +26°C° 0 mm 3 mps 747 mmHg 60%
20:00 +24°C° 0 mm 3 mps 748 mmHg 67%
21:00 +22°C° 0 mm 3 mps 748 mmHg 74%
22:00 +21°C° 0 mm 2 mps 748 mmHg 81%
23:00 +19°C° 0 mm 2 mps 749 mmHg 88%

9 August, Monday

Time Temperature Precipitation Wind Pressure Humidity
00:00 +19°C° 0.1 mm 2 mps 749 mmHg 90%
01:00 +18°C° 0.1 mm 2 mps 749 mmHg 92%
02:00 +18°C° 0.1 mm 2 mps 749 mmHg 94%
03:00 +19°C° 0.4 mm 1 mps 749 mmHg 95%
04:00 +18°C° 0.4 mm 1 mps 749 mmHg 95%
05:00 +18°C° 0.4 mm 1 mps 749 mmHg 96%
06:00 +19°C° 0.4 mm 1 mps 749 mmHg 94%
07:00 +20°C° 0.4 mm 1 mps 749 mmHg 92%
08:00 +20°C° 0.4 mm 2 mps 749 mmHg 89%
09:00 +21°C° 0 mm 2 mps 749 mmHg 82%
10:00 +23°C° 0 mm 2 mps 750 mmHg 75%
11:00 +25°C° 0 mm 2 mps 750 mmHg 68%
12:00 +25°C° 0.1 mm 2 mps 750 mmHg 67%
13:00 +25°C° 0.1 mm 3 mps 750 mmHg 65%
14:00 +25°C° 0.1 mm 3 mps 750 mmHg 64%
15:00 +25°C° 0.1 mm 3 mps 750 mmHg 65%
16:00 +23°C° 0.1 mm 4 mps 751 mmHg 67%
17:00 +23°C° 0.1 mm 4 mps 751 mmHg 69%
18:00 +21°C° 0 mm 4 mps 751 mmHg 73%
19:00 +20°C° 0 mm 3 mps 751 mmHg 77%
20:00 +19°C° 0 mm 3 mps 752 mmHg 81%
21:00 +18°C° 0 mm 3 mps 752 mmHg 84%
22:00 +17°C° 0 mm 2 mps 752 mmHg 86%
23:00 +16°C° 0 mm 2 mps 752 mmHg 89%

10 August, Tuesday

Time Temperature Precipitation Wind Pressure Humidity
00:00 +16°C° 0 mm 2 mps 752 mmHg 90%
01:00 +15°C° 0 mm 2 mps 752 mmHg 91%
02:00 +15°C° 0 mm 2 mps 752 mmHg 93%
03:00 +15°C° 0 mm 2 mps 752 mmHg 93%
04:00 +15°C° 0 mm 2 mps 752 mmHg 93%
05:00 +14°C° 0 mm 2 mps 752 mmHg 93%
06:00 +16°C° 0 mm 2 mps 752 mmHg 87%
07:00 +17°C° 0 mm 2 mps 752 mmHg 80%
08:00 +19°C° 0 mm 2 mps 752 mmHg 74%
09:00 +20°C° 0 mm 2 mps 752 mmHg 67%
10:00 +21°C° 0 mm 2 mps 752 mmHg 61%
11:00 +24°C° 0 mm 2 mps 752 mmHg 55%
12:00 +24°C° 0 mm 2 mps 752 mmHg 52%
13:00 +25°C° 0 mm 2 mps 752 mmHg 49%
14:00 +25°C° 0 mm 2 mps 751 mmHg 46%
15:00 +25°C° 0 mm 2 mps 751 mmHg 47%
16:00 +25°C° 0 mm 2 mps 751 mmHg 49%
17:00 +24°C° 0 mm 2 mps 751 mmHg 51%
18:00 +23°C° 0 mm 2 mps 751 mmHg 54%
19:00 +21°C° 0 mm 2 mps 751 mmHg 56%
20:00 +20°C° 0 mm 2 mps 751 mmHg 59%
21:00 +20°C° 0 mm 2 mps 751 mmHg 62%
22:00 +19°C° 0 mm 2 mps 751 mmHg 64%
23:00 +18°C° 0 mm 2 mps 751 mmHg 66%
Show more

We Need Your Consent

Meteoprog and our Service Providers may store and access personal data such as cookies, device identifiers or other similar technologies on your device and process such data to personalise content and ads, as well as provide social media features and to analyse the traffic.

  • Store and/or access information on your device

    Cookies, device identifiers or other information can be stored or accessed on your device for the purposes indicated above.

  • Personalised ads and content, ad and content measurement, audience insights, and products development

    Ads and content can be personalised based on a profile. More data can be added to better personalise ads and content. Ad and content performance can be measured. Insights about the audience who saw the ads and content can be derived. Such data can be used to develop or improve user’s experience, systems and software.

By clicking ‘I Agree’ you will allow the use of indicated cookies, device identifiers, web beacons or other similar technologies. Your settings can be changed in the browser on your device.

For certain purposes, legitimate interests may be relied on, rather than consent. You can read more about this in our Privacy and Cookie Policy.